COOK73 UKDE-UNOO

Flight info

Callsign COOK73
Flight time N/A
Altitude 33000
Route ODNIV N604 NIKAD L68 LUZKA N604 ATLOG L749 BASAB T762 ABALI L158 PEMAG A231 MATIL MATIL6B
Aircraft C25C/M-SDE2E3FGHRWXY/LB1

Departure

Time 2026-04-26 14:31
Airport Zaporizhzhia International Airport (UKDE)

Arrival

Time N/A
Airport Omsk Central Airport (UNOO)
Time Latitude Longitude Altitude Speed Heading
2026-04-26 14:17 47.86453 35.31637 357 ft 0 kts 293°
2026-04-26 14:23 47.86451 35.31646 357 ft 2 kts 270°
2026-04-26 14:24 47.86457 35.31659 357 ft 2 kts 195°
2026-04-26 14:24 47.86468 35.31661 363 ft 2 kts 209°
2026-04-26 14:24 47.86469 35.31662 363 ft 0 kts 210°
2026-04-26 14:25 47.86464 35.31658 356 ft 3 kts 204°
2026-04-26 14:26 47.86428 35.31641 359 ft 6 kts 197°
2026-04-26 14:26 47.86407 35.31598 359 ft 5 kts 254°
2026-04-26 14:26 47.86373 35.31563 356 ft 7 kts 202°
2026-04-26 14:26 47.86315 35.31528 355 ft 11 kts 203°
2026-04-26 14:27 47.86238 35.31478 353 ft 13 kts 203°
2026-04-26 14:27 47.86152 35.31425 352 ft 14 kts 201°
2026-04-26 14:27 47.86061 35.31370 350 ft 14 kts 203°
2026-04-26 14:27 47.85969 35.31312 348 ft 14 kts 202°
2026-04-26 14:28 47.85876 35.31254 347 ft 15 kts 202°
2026-04-26 14:28 47.85804 35.31210 345 ft 7 kts 202°
2026-04-26 14:28 47.85776 35.31152 348 ft 7 kts 258°
2026-04-26 14:28 47.85766 35.31070 344 ft 9 kts 260°
2026-04-26 14:29 47.85765 35.30971 344 ft 9 kts 280°
2026-04-26 14:29 47.85802 35.30939 349 ft 4 kts 18°
2026-04-26 14:29 47.85803 35.30939 349 ft 0 kts 18°
2026-04-26 14:31 47.85867 35.30975 344 ft 36 kts 21°
2026-04-26 14:31 47.86399 35.31305 353 ft 128 kts 21°
2026-04-26 14:31 47.87299 35.31820 1104 ft 137 kts
2026-04-26 14:31 47.88330 35.32467 1585 ft 181 kts 13°
2026-04-26 14:32 47.89572 35.33293 2220 ft 209 kts 12°
2026-04-26 14:32 47.90954 35.33504 3223 ft 196 kts 340°
2026-04-26 14:32 47.92194 35.32770 4168 ft 189 kts 313°
2026-04-26 14:32 47.93020 35.31338 5129 ft 182 kts 289°
2026-04-26 14:33 47.93545 35.29601 6085 ft 187 kts 286°
2026-04-26 14:33 47.94094 35.27829 7044 ft 190 kts 285°
2026-04-26 14:33 47.94666 35.26028 8016 ft 198 kts 291°
2026-04-26 14:33 47.95668 35.24489 8991 ft 218 kts 314°
2026-04-26 14:34 47.97137 35.23581 9926 ft 240 kts 336°
2026-04-26 14:34 47.98774 35.23021 10857 ft 242 kts 336°
2026-04-26 14:34 48.00427 35.22473 11809 ft 244 kts 336°
2026-04-26 14:34 48.02091 35.21904 12757 ft 247 kts 335°
2026-04-26 14:35 48.03745 35.21330 13659 ft 249 kts 334°
2026-04-26 14:35 48.05447 35.20748 14472 ft 253 kts 335°
2026-04-26 14:35 48.07173 35.20163 15283 ft 256 kts 335°
2026-04-26 14:35 48.08917 35.19568 16076 ft 259 kts 334°
2026-04-26 14:36 48.10687 35.18968 16892 ft 262 kts 334°
2026-04-26 14:36 48.12476 35.18357 17716 ft 266 kts 334°
2026-04-26 14:36 48.14289 35.17735 18464 ft 269 kts 334°
2026-04-26 14:36 48.16125 35.17111 19201 ft 272 kts 333°
2026-04-26 14:37 48.17956 35.16485 19948 ft 275 kts 333°
2026-04-26 14:37 48.19833 35.15842 20721 ft 278 kts 333°
2026-04-26 14:37 48.21731 35.15193 21533 ft 281 kts 332°
2026-04-26 14:37 48.23649 35.14535 22371 ft 285 kts 332°
2026-04-26 14:38 48.25592 35.13867 23191 ft 289 kts 332°
2026-04-26 14:38 48.27561 35.13193 23880 ft 291 kts 332°
2026-04-26 14:38 48.29544 35.12515 24542 ft 294 kts 332°
2026-04-26 14:38 48.30866 35.12059 24957 ft 295 kts 332°
2026-04-26 14:39 48.33593 35.11234 25775 ft 311 kts 342°
2026-04-26 14:39 48.35808 35.11527 26403 ft 338 kts
2026-04-26 14:39 48.38040 35.12983 27003 ft 363 kts 25°
2026-04-26 14:39 48.40054 35.15386 27577 ft 373 kts 33°
2026-04-26 14:40 48.42030 35.17952 28202 ft 377 kts 34°
2026-04-26 14:40 48.44012 35.20526 28880 ft 376 kts 33°
2026-04-26 14:40 48.46011 35.23052 29558 ft 375 kts 32°
2026-04-26 14:40 48.48009 35.25568 30147 ft 374 kts 33°
2026-04-26 14:41 48.49995 35.28098 30712 ft 373 kts 33°
2026-04-26 14:41 48.51302 35.29774 31075 ft 372 kts 33°
2026-04-26 14:41 48.53912 35.33110 31789 ft 370 kts 33°
2026-04-26 14:41 48.55877 35.35614 32325 ft 369 kts 32°
2026-04-26 14:42 48.57847 35.38128 32653 ft 376 kts 32°
2026-04-26 14:42 48.59891 35.40734 32693 ft 393 kts 33°
2026-04-26 14:42 48.62019 35.43458 32698 ft 409 kts 33°
2026-04-26 14:42 48.63471 35.45329 32697 ft 420 kts 34°
2026-04-26 14:43 48.65735 35.48240 32699 ft 435 kts 34°
2026-04-26 14:43 48.68075 35.51251 32699 ft 448 kts 34°
2026-04-26 14:43 48.71276 35.55373 32694 ft 463 kts 34°
2026-04-26 14:44 48.76274 35.61830 32697 ft 481 kts 35°
2026-04-26 14:44 48.80547 35.67361 32685 ft 489 kts 35°
2026-04-26 14:45 48.85722 35.74078 32681 ft 490 kts 35°
2026-04-26 14:45 48.90908 35.80825 32673 ft 491 kts 35°
2026-04-26 14:46 48.96102 35.87604 32671 ft 492 kts 36°
2026-04-26 14:46 49.01297 35.94388 32666 ft 492 kts 35°
2026-04-26 14:47 49.06546 36.00953 32663 ft 491 kts 34°
2026-04-26 14:47 49.11798 36.07674 32655 ft 494 kts 35°
2026-04-26 14:48 49.17080 36.14397 32653 ft 494 kts 34°
2026-04-26 14:48 49.22355 36.21150 32646 ft 495 kts 35°
2026-04-26 14:49 49.27591 36.27867 32644 ft 494 kts 35°
2026-04-26 14:49 49.32853 36.34649 32636 ft 494 kts 36°
2026-04-26 14:50 49.38100 36.41456 32636 ft 494 kts 36°
2026-04-26 14:50 49.43352 36.48271 32628 ft 494 kts 36°
2026-04-26 14:51 49.48561 36.55060 32623 ft 494 kts 36°
2026-04-26 14:51 49.53803 36.61906 32621 ft 494 kts 36°
2026-04-26 14:52 49.59045 36.68775 32615 ft 495 kts 36°
2026-04-26 14:52 49.64290 36.75663 32608 ft 495 kts 36°
2026-04-26 14:53 49.69496 36.82526 32604 ft 495 kts 36°
2026-04-26 14:53 49.74730 36.89442 32596 ft 495 kts 36°
2026-04-26 14:54 49.79960 36.96376 32595 ft 495 kts 37°
2026-04-26 14:54 49.85185 37.03324 32586 ft 495 kts 37°
2026-04-26 14:55 49.90368 37.10237 32582 ft 495 kts 37°
2026-04-26 14:55 49.95583 37.17215 32575 ft 495 kts 37°
2026-04-26 14:56 50.00798 37.24208 32565 ft 495 kts 37°
2026-04-26 14:56 50.06008 37.31218 32558 ft 495 kts 37°
2026-04-26 14:57 50.11216 37.38244 32552 ft 495 kts 37°
2026-04-26 14:57 50.16385 37.45239 32538 ft 495 kts 37°
2026-04-26 14:58 50.21584 37.52297 32526 ft 495 kts 38°
2026-04-26 14:58 50.26777 37.59374 32520 ft 495 kts 38°
2026-04-26 14:59 50.31330 37.67494 32502 ft 499 kts 55°
2026-04-26 14:59 50.34801 37.76814 32491 ft 499 kts 61°
2026-04-26 15:00 50.38209 37.86274 32481 ft 498 kts 61°
2026-04-26 15:00 50.41602 37.95740 32475 ft 498 kts 61°
2026-04-26 15:01 50.44987 38.05202 32465 ft 497 kts 62°
2026-04-26 15:01 50.48339 38.14591 32466 ft 496 kts 62°
2026-04-26 15:02 50.51699 38.24049 32467 ft 495 kts 62°
2026-04-26 15:02 50.55049 38.33504 32463 ft 495 kts 62°
2026-04-26 15:03 50.58386 38.42958 32475 ft 494 kts 62°
2026-04-26 15:03 50.61709 38.52407 32475 ft 493 kts 62°
2026-04-26 15:04 50.64998 38.61803 32477 ft 493 kts 62°
2026-04-26 15:04 50.68302 38.71271 32482 ft 493 kts 62°
2026-04-26 15:05 50.71593 38.80740 32486 ft 492 kts 62°
2026-04-26 15:05 50.74877 38.90218 32488 ft 491 kts 62°
2026-04-26 15:06 50.78123 38.99623 32489 ft 491 kts 63°
2026-04-26 15:06 50.81380 39.09095 32498 ft 490 kts 63°
2026-04-26 15:07 50.86248 39.23323 32497 ft 490 kts 63°
2026-04-26 15:07 50.89481 39.32816 32502 ft 490 kts 63°
2026-04-26 15:08 50.92681 39.42245 32506 ft 489 kts 63°
2026-04-26 15:08 50.95891 39.51748 32513 ft 489 kts 63°
2026-04-26 15:09 50.99093 39.61254 32520 ft 488 kts 63°
2026-04-26 15:09 51.02285 39.70768 32522 ft 488 kts 63°
2026-04-26 15:10 51.04941 39.78661 32527 ft 487 kts 63°
2026-04-26 15:10 51.08621 39.89717 32528 ft 487 kts 64°
2026-04-26 15:11 51.11767 39.99244 32534 ft 486 kts 64°
2026-04-26 15:11 51.14908 40.08768 32536 ft 485 kts 64°
2026-04-26 15:12 51.18034 40.18298 32541 ft 485 kts 64°
2026-04-26 15:12 51.21142 40.27752 32543 ft 485 kts 64°
2026-04-26 15:13 51.24268 40.37275 32551 ft 484 kts 64°
2026-04-26 15:13 51.27378 40.46807 32556 ft 484 kts 64°
2026-04-26 15:14 51.30486 40.56352 32553 ft 484 kts 64°
2026-04-26 15:14 51.34247 40.65162 32559 ft 485 kts 50°
2026-04-26 15:15 51.38471 40.73564 32563 ft 485 kts 51°
2026-04-26 15:15 51.42679 40.81991 32568 ft 484 kts 51°
2026-04-26 15:16 51.46884 40.90423 32568 ft 484 kts 51°
2026-04-26 15:16 51.51056 40.98826 32568 ft 484 kts 51°
2026-04-26 15:17 51.54562 41.05901 32569 ft 484 kts 51°
2026-04-26 15:17 51.59422 41.15745 32576 ft 483 kts 51°
2026-04-26 15:18 51.63592 41.24219 32579 ft 483 kts 51°
2026-04-26 15:18 51.67771 41.32700 32581 ft 483 kts 49°
2026-04-26 15:19 51.72196 41.40711 32582 ft 482 kts 47°
2026-04-26 15:19 51.76620 41.48837 32586 ft 482 kts 47°
2026-04-26 15:20 51.81065 41.56964 32587 ft 481 kts 48°
2026-04-26 15:20 51.85480 41.65100 32584 ft 481 kts 48°
2026-04-26 15:21 51.89860 41.73177 32585 ft 481 kts 48°
2026-04-26 15:21 51.94259 41.81325 32590 ft 480 kts 48°
2026-04-26 15:22 51.98650 41.89480 32593 ft 480 kts 48°
2026-04-26 15:22 52.03033 41.97645 32596 ft 479 kts 48°
2026-04-26 15:23 52.07405 42.05817 32598 ft 479 kts 48°
2026-04-26 15:23 52.11739 42.13946 32602 ft 479 kts 48°
2026-04-26 15:24 52.16096 42.22146 32605 ft 479 kts 49°
2026-04-26 15:24 52.20446 42.30360 32607 ft 478 kts 48°
2026-04-26 15:25 52.24056 42.37198 32605 ft 478 kts 49°
2026-04-26 15:25 52.29092 42.46760 32607 ft 478 kts 49°
2026-04-26 15:26 52.33420 42.55012 32614 ft 478 kts 49°
2026-04-26 15:26 52.37739 42.63275 32619 ft 478 kts 49°
2026-04-26 15:27 52.42050 42.71551 32621 ft 477 kts 49°
2026-04-26 15:27 52.46222 42.80002 32628 ft 477 kts 57°
2026-04-26 15:28 52.49148 42.89639 32627 ft 474 kts 72°
2026-04-26 15:28 52.51375 42.99828 32636 ft 474 kts 72°
2026-04-26 15:29 52.53602 43.10011 32634 ft 474 kts 72°
2026-04-26 15:30 52.58009 43.30337 32645 ft 473 kts 72°
2026-04-26 15:30 52.60202 43.40535 32652 ft 473 kts 72°
2026-04-26 15:31 52.63475 43.55851 32651 ft 473 kts 72°
2026-04-26 15:32 52.66362 43.69446 32665 ft 472 kts 73°
2026-04-26 15:32 52.68865 43.81317 32668 ft 472 kts 72°
2026-04-26 15:33 52.71009 43.91535 32670 ft 471 kts 72°
2026-04-26 15:33 52.73141 44.01754 32675 ft 471 kts 73°
2026-04-26 15:34 52.75264 44.11974 32679 ft 470 kts 73°
2026-04-26 15:34 52.77359 44.22121 32684 ft 470 kts 73°
2026-04-26 15:35 52.79459 44.32343 32687 ft 470 kts 73°
2026-04-26 15:35 52.81548 44.42565 32693 ft 469 kts 73°
2026-04-26 15:36 52.83625 44.52784 32697 ft 469 kts 73°
2026-04-26 15:36 52.85678 44.62930 32701 ft 468 kts 73°
2026-04-26 15:37 52.87731 44.73150 32703 ft 468 kts 73°
2026-04-26 15:37 52.89773 44.83362 32704 ft 467 kts 73°
2026-04-26 15:38 52.91805 44.93583 32710 ft 467 kts 73°
2026-04-26 15:38 52.93920 45.03678 32715 ft 467 kts 71°
2026-04-26 15:39 52.96104 45.13804 32721 ft 466 kts 71°
2026-04-26 15:39 52.97914 45.22216 32722 ft 466 kts 71°
2026-04-26 15:40 53.00449 45.34045 32737 ft 465 kts 71°
2026-04-26 15:40 53.02590 45.44099 32733 ft 465 kts 71°
2026-04-26 15:41 53.04736 45.54213 32740 ft 464 kts 71°
2026-04-26 15:41 53.06870 45.64330 32741 ft 463 kts 71°
2026-04-26 15:42 53.08991 45.74443 32744 ft 463 kts 71°
2026-04-26 15:42 53.11100 45.84549 32751 ft 462 kts 72°
2026-04-26 15:43 53.13181 45.94584 32749 ft 462 kts 72°
2026-04-26 15:44 53.16309 46.09739 32761 ft 461 kts 72°
2026-04-26 15:44 53.19409 46.24892 32762 ft 460 kts 72°
2026-04-26 15:45 53.22474 46.39982 32765 ft 459 kts 72°
2026-04-26 15:46 53.25530 46.55138 32768 ft 459 kts 72°
2026-04-26 15:46 53.27210 46.63537 32769 ft 459 kts 72°
2026-04-26 15:47 53.30548 46.80335 32774 ft 458 kts 72°
2026-04-26 15:48 53.32544 46.90446 32778 ft 458 kts 72°
2026-04-26 15:48 53.34529 47.00558 32782 ft 457 kts 72°
2026-04-26 15:49 53.36503 47.10668 32783 ft 457 kts 72°
2026-04-26 15:49 53.38455 47.20716 32787 ft 456 kts 72°
2026-04-26 15:50 53.40409 47.30822 32794 ft 456 kts 72°
2026-04-26 15:50 53.42357 47.40939 32795 ft 456 kts 72°
2026-04-26 15:51 53.44295 47.51044 32797 ft 455 kts 72°
2026-04-26 15:51 53.46208 47.61083 32806 ft 455 kts 72°
2026-04-26 15:52 53.48197 47.71151 32799 ft 454 kts 67°
2026-04-26 15:52 53.50682 47.80898 32803 ft 454 kts 67°
2026-04-26 15:53 53.53126 47.90672 32811 ft 453 kts 66°
2026-04-26 15:53 53.55583 48.00437 32816 ft 453 kts 67°
2026-04-26 15:54 53.57998 48.10148 32820 ft 453 kts 67°
2026-04-26 15:54 53.60430 48.19929 32820 ft 453 kts 67°
2026-04-26 15:55 53.62846 48.29717 32822 ft 453 kts 67°
2026-04-26 15:55 53.65258 48.39518 32829 ft 453 kts 67°
2026-04-26 15:56 53.67659 48.49330 32830 ft 453 kts 67°
2026-04-26 15:56 53.70040 48.59087 32830 ft 453 kts 67°
2026-04-26 15:57 53.72426 48.68917 32827 ft 453 kts 67°
2026-04-26 15:57 53.74806 48.78759 32826 ft 452 kts 67°
2026-04-26 15:58 53.77176 48.88608 32827 ft 452 kts 67°
2026-04-26 15:58 53.79553 48.98380 32828 ft 452 kts 67°
2026-04-26 15:59 53.81926 49.08227 32834 ft 452 kts 67°
2026-04-26 15:59 53.84295 49.18084 32837 ft 452 kts 67°
2026-04-26 16:00 53.86655 49.27947 32841 ft 452 kts 67°
2026-04-26 16:00 53.89004 49.37810 32848 ft 451 kts 67°
2026-04-26 16:01 53.91328 49.47614 32853 ft 451 kts 67°
2026-04-26 16:01 53.93661 49.57496 32854 ft 451 kts 67°
2026-04-26 16:02 53.95984 49.67389 32870 ft 451 kts 68°
2026-04-26 16:02 53.98299 49.77292 32879 ft 451 kts 68°
2026-04-26 16:03 54.00589 49.87136 32884 ft 451 kts 68°
2026-04-26 16:03 54.02886 49.97055 32887 ft 451 kts 68°
2026-04-26 16:04 54.05174 50.06994 32893 ft 451 kts 68°
2026-04-26 16:04 54.07455 50.16945 32898 ft 451 kts 68°
2026-04-26 16:05 54.09728 50.26909 32899 ft 451 kts 68°
2026-04-26 16:05 54.12044 50.36760 32901 ft 451 kts 66°
2026-04-26 16:06 54.14384 50.46685 32897 ft 451 kts 67°
2026-04-26 16:06 54.16700 50.56634 32905 ft 451 kts 66°
2026-04-26 16:07 54.19021 50.66589 32900 ft 451 kts 67°
2026-04-26 16:07 54.21308 50.76486 32904 ft 451 kts 67°
2026-04-26 16:08 54.23611 50.86466 32907 ft 451 kts 66°
2026-04-26 16:08 54.25900 50.96458 32910 ft 451 kts 67°
2026-04-26 16:09 54.28057 51.06543 32912 ft 451 kts 68°
2026-04-26 16:09 54.30216 51.16560 32915 ft 452 kts 68°
2026-04-26 16:10 54.32361 51.26674 32914 ft 452 kts 68°
2026-04-26 16:10 54.34510 51.36789 32923 ft 452 kts 68°
2026-04-26 16:11 54.36643 51.46912 32923 ft 452 kts 68°
2026-04-26 16:11 54.38770 51.57048 32921 ft 452 kts 68°
2026-04-26 16:12 54.40873 51.67130 32926 ft 452 kts 68°
2026-04-26 16:12 54.44033 51.82360 32925 ft 452 kts 68°
2026-04-26 16:13 54.46129 51.92531 32925 ft 451 kts 68°
2026-04-26 16:13 54.48202 52.02644 32931 ft 451 kts 68°
2026-04-26 16:14 54.50278 52.12827 32934 ft 451 kts 69°
2026-04-26 16:15 54.53398 52.28122 32939 ft 451 kts 68°
2026-04-26 16:15 54.55518 52.38299 32939 ft 452 kts 68°
2026-04-26 16:16 54.58634 52.53546 32938 ft 452 kts 68°
2026-04-26 16:16 54.60719 52.63771 32943 ft 452 kts 68°
2026-04-26 16:17 54.62794 52.74009 32943 ft 452 kts 68°
2026-04-26 16:17 54.64602 52.84404 32939 ft 454 kts 76°
2026-04-26 16:18 54.66796 53.00231 32943 ft 454 kts 75°
2026-04-26 16:19 54.68946 53.16163 32951 ft 454 kts 75°
2026-04-26 16:20 54.71091 53.32121 32953 ft 454 kts 75°
2026-04-26 16:20 54.73209 53.48028 32954 ft 455 kts 75°
2026-04-26 16:21 54.74613 53.58687 32958 ft 454 kts 75°
2026-04-26 16:21 54.76009 53.69362 32959 ft 455 kts 76°
2026-04-26 16:22 54.77396 53.80054 32960 ft 455 kts 76°
2026-04-26 16:22 54.78766 53.90685 32964 ft 455 kts 76°
2026-04-26 16:23 54.80137 54.01401 32966 ft 456 kts 76°
2026-04-26 16:23 54.81500 54.12126 32966 ft 456 kts 76°
2026-04-26 16:24 54.82853 54.22874 32968 ft 456 kts 76°
2026-04-26 16:24 54.84190 54.33554 32965 ft 457 kts 76°
2026-04-26 16:25 54.85526 54.44325 32968 ft 456 kts 76°
2026-04-26 16:25 54.86854 54.55105 32970 ft 457 kts 76°
2026-04-26 16:26 54.87949 54.64071 32977 ft 457 kts 76°
2026-04-26 16:26 54.89479 54.76695 32970 ft 457 kts 77°
2026-04-26 16:27 54.90769 54.87441 32978 ft 457 kts 77°
2026-04-26 16:27 54.92060 54.98262 32977 ft 458 kts 77°
2026-04-26 16:28 54.93342 55.09103 32978 ft 458 kts 77°
2026-04-26 16:28 54.94619 55.19959 32978 ft 458 kts 77°
2026-04-26 16:29 54.95876 55.30754 32981 ft 458 kts 77°
2026-04-26 16:29 54.97132 55.41626 32978 ft 459 kts 78°
2026-04-26 16:30 54.98380 55.52515 32978 ft 459 kts 78°
2026-04-26 16:30 54.99617 55.63414 32983 ft 459 kts 78°
2026-04-26 16:31 55.00837 55.74254 32978 ft 459 kts 78°
2026-04-26 16:31 55.02056 55.85170 32980 ft 459 kts 78°
2026-04-26 16:32 55.03063 55.94255 32983 ft 459 kts 78°
2026-04-26 16:32 55.04470 56.07051 32984 ft 460 kts 78°
2026-04-26 16:33 55.05655 56.17933 32987 ft 460 kts 79°
2026-04-26 16:33 55.06838 56.28905 32987 ft 460 kts 79°
2026-04-26 16:34 55.08013 56.39889 32988 ft 460 kts 79°
2026-04-26 16:34 55.09177 56.50884 32993 ft 461 kts 79°
2026-04-26 16:35 55.10336 56.61881 32991 ft 461 kts 79°
2026-04-26 16:35 55.11477 56.72821 32995 ft 461 kts 80°
2026-04-26 16:36 55.12615 56.83849 32996 ft 461 kts 80°
2026-04-26 16:36 55.13746 56.94881 32998 ft 462 kts 80°
2026-04-26 16:37 55.14868 57.05932 33000 ft 462 kts 80°
2026-04-26 16:37 55.15793 57.15125 33001 ft 462 kts 81°
2026-04-26 16:38 55.17074 57.27999 33000 ft 462 kts 81°
2026-04-26 16:38 55.18169 57.39091 33000 ft 463 kts 81°
2026-04-26 16:39 55.19254 57.50197 33004 ft 463 kts 81°
2026-04-26 16:39 55.20329 57.61317 33000 ft 464 kts 82°
2026-04-26 16:40 55.21387 57.72376 33000 ft 464 kts 82°
2026-04-26 16:40 55.22444 57.83533 33007 ft 464 kts 82°
2026-04-26 16:41 55.23491 57.94705 33003 ft 465 kts 82°
2026-04-26 16:41 55.24530 58.05889 33002 ft 465 kts 82°
2026-04-26 16:42 55.25553 58.17008 33000 ft 466 kts 82°
2026-04-26 16:42 55.26587 58.28218 33008 ft 466 kts 83°
2026-04-26 16:43 55.27605 58.39442 33004 ft 466 kts 83°
2026-04-26 16:43 55.28616 58.50670 33012 ft 466 kts 83°
2026-04-26 16:44 55.29610 58.61843 33005 ft 467 kts 83°
2026-04-26 16:44 55.30601 58.73104 33006 ft 467 kts 84°
2026-04-26 16:45 55.31582 58.84370 33004 ft 467 kts 84°
2026-04-26 16:45 55.32551 58.95649 33010 ft 467 kts 84°
2026-04-26 16:46 55.33506 59.06862 33006 ft 467 kts 84°
2026-04-26 16:46 55.34456 59.18157 33008 ft 467 kts 84°
2026-04-26 16:47 55.35398 59.29454 33002 ft 467 kts 85°
2026-04-26 16:47 55.36326 59.40758 33005 ft 467 kts 85°
2026-04-26 16:48 55.37240 59.51990 33000 ft 467 kts 85°
2026-04-26 16:48 55.38148 59.63304 32999 ft 467 kts 86°
2026-04-26 16:49 55.39047 59.74619 32994 ft 467 kts 86°
2026-04-26 16:49 55.39455 59.85963 33000 ft 465 kts 91°
2026-04-26 16:50 55.39813 59.97232 32993 ft 464 kts 91°
2026-04-26 16:50 55.40111 60.08582 32992 ft 464 kts 92°
2026-04-26 16:51 55.40428 60.19938 32988 ft 465 kts 92°
2026-04-26 16:51 55.40729 60.31298 32990 ft 465 kts 92°
2026-04-26 16:52 55.40922 60.38819 32982 ft 465 kts 92°
2026-04-26 16:52 55.41159 60.48263 32672 ft 463 kts 82°
2026-04-26 16:52 55.41297 60.53910 32810 ft 461 kts 84°
2026-04-26 16:53 55.41436 60.59529 32944 ft 459 kts 84°
2026-04-26 16:53 55.41571 60.65135 32980 ft 459 kts 84°
2026-04-26 16:53 55.41827 60.76386 32978 ft 461 kts 84°
2026-04-26 16:54 55.42325 60.87543 32975 ft 458 kts 76°
2026-04-26 16:54 55.43741 60.98472 32979 ft 458 kts 73°
2026-04-26 16:55 55.45174 61.09409 32986 ft 459 kts 73°
2026-04-26 16:55 55.46603 61.20381 32992 ft 460 kts 73°
2026-04-26 16:56 55.48718 61.36815 32993 ft 461 kts 73°
2026-04-26 16:57 55.50128 61.47847 32993 ft 461 kts 73°
2026-04-26 16:57 55.52224 61.64432 32992 ft 462 kts 74°
2026-04-26 16:58 55.53145 61.71769 32985 ft 463 kts 74°
2026-04-26 16:59 55.55669 61.92106 32977 ft 463 kts 74°
2026-04-26 17:00 55.58388 62.14384 32974 ft 464 kts 75°
2026-04-26 17:00 55.60393 62.31058 32971 ft 465 kts 75°
2026-04-26 17:01 55.61723 62.42245 32974 ft 465 kts 75°
2026-04-26 17:01 55.63044 62.53450 32972 ft 465 kts 75°
2026-04-26 17:02 55.64357 62.64671 32971 ft 466 kts 75°
2026-04-26 17:02 55.65651 62.75827 32972 ft 466 kts 76°
2026-04-26 17:03 55.66946 62.87077 32970 ft 466 kts 76°
2026-04-26 17:03 55.68238 62.98336 32965 ft 466 kts 76°
2026-04-26 17:04 55.69517 63.09606 32969 ft 467 kts 76°
2026-04-26 17:04 55.70786 63.20883 32967 ft 467 kts 76°
2026-04-26 17:05 55.72038 63.32105 32967 ft 467 kts 77°
2026-04-26 17:05 55.73288 63.43414 32966 ft 467 kts 77°
2026-04-26 17:06 55.74529 63.54733 32968 ft 468 kts 77°
2026-04-26 17:06 55.75762 63.66071 32967 ft 468 kts 77°
2026-04-26 17:07 55.76781 63.77403 32965 ft 470 kts 85°
2026-04-26 17:07 55.76539 63.89003 32953 ft 471 kts 93°
2026-04-26 17:08 55.76125 64.00603 32957 ft 471 kts 93°
2026-04-26 17:08 55.75675 64.12197 32963 ft 471 kts 94°
2026-04-26 17:09 55.75379 64.19876 32966 ft 471 kts 94°
2026-04-26 17:09 55.74766 64.35296 32963 ft 471 kts 94°
2026-04-26 17:10 55.74292 64.46889 32963 ft 471 kts 94°
2026-04-26 17:10 55.73809 64.58478 32965 ft 471 kts 94°
2026-04-26 17:11 55.73317 64.69981 32966 ft 471 kts 94°
2026-04-26 17:11 55.72814 64.81565 32968 ft 471 kts 95°
2026-04-26 17:12 55.72038 64.98938 32967 ft 471 kts 95°
2026-04-26 17:13 55.71239 65.16223 32968 ft 471 kts 95°
2026-04-26 17:14 55.70413 65.33586 32964 ft 471 kts 95°
2026-04-26 17:14 55.69565 65.50936 32965 ft 471 kts 95°
2026-04-26 17:15 55.68695 65.68196 32963 ft 471 kts 96°
2026-04-26 17:16 55.68099 65.79749 32965 ft 471 kts 96°
2026-04-26 17:16 55.67492 65.91308 32961 ft 471 kts 96°
2026-04-26 17:17 55.66873 66.02866 32961 ft 471 kts 96°
2026-04-26 17:17 55.66351 66.12468 32962 ft 471 kts 96°
2026-04-26 17:18 55.65609 66.25870 32961 ft 471 kts 96°
2026-04-26 17:18 55.64959 66.37412 32958 ft 471 kts 97°
2026-04-26 17:19 55.63974 66.54677 32958 ft 471 kts 97°
2026-04-26 17:19 55.63299 66.66215 32961 ft 471 kts 97°
2026-04-26 17:20 55.62843 66.73938 32954 ft 472 kts 97°
2026-04-26 17:20 55.61916 66.89293 32957 ft 471 kts 97°
2026-04-26 17:21 55.61215 67.00745 32960 ft 471 kts 97°
2026-04-26 17:21 55.60499 67.12265 32938 ft 471 kts 97°
2026-04-26 17:22 55.59771 67.23784 32942 ft 471 kts 98°
2026-04-26 17:22 55.59158 67.33352 32938 ft 471 kts 98°
2026-04-26 17:23 55.58409 67.44864 32938 ft 471 kts 98°
2026-04-26 17:23 55.57525 67.58235 32937 ft 471 kts 98°
2026-04-26 17:24 55.56885 67.67793 32932 ft 471 kts 98°
2026-04-26 17:24 55.56105 67.79290 32935 ft 471 kts 98°
2026-04-26 17:25 55.55315 67.90782 32932 ft 471 kts 99°
2026-04-26 17:25 55.54593 68.02280 32933 ft 472 kts 94°
2026-04-26 17:26 55.54761 68.13818 32932 ft 473 kts 89°
2026-04-26 17:26 55.54985 68.25437 32930 ft 473 kts 89°
2026-04-26 17:27 55.55194 68.37055 32929 ft 474 kts 90°
2026-04-26 17:27 55.55392 68.48682 32928 ft 474 kts 90°
2026-04-26 17:28 55.55578 68.60236 32921 ft 474 kts 90°
2026-04-26 17:28 55.55754 68.71871 32920 ft 474 kts 90°
2026-04-26 17:29 55.55893 68.81535 32919 ft 474 kts 90°
2026-04-26 17:29 55.56075 68.95147 32917 ft 474 kts 90°
2026-04-26 17:30 55.56217 69.06695 32912 ft 474 kts 91°
2026-04-26 17:30 55.56292 69.18351 32912 ft 473 kts 95°
2026-04-26 17:31 55.55319 69.29772 32916 ft 470 kts 103°
2026-04-26 17:31 55.54165 69.41131 32917 ft 470 kts 103°
2026-04-26 17:32 55.53001 69.52486 32915 ft 470 kts 103°